<?xml version="1.0" encoding="UTF-8" standalone="no" ?>
<gpx xmlns="http://www.topografix.com/GPX/1/1" xmlns:xsi="http://www.w3.org/2001/XMLSchema-instance" xsi:schemaLocation="http://www.topografix.com/GPX/1/1 http://www.topografix.com/GPX/1/1/gpx.xsd" version="1.1" creator="VisuGPX - https://www.visugpx.com">
  <metadata>
    <name>FONTENAY ST PERE  FORET DU CHESNAY VETHEUIL</name>
    <desc><![CDATA[FAIT]]></desc>
  </metadata>
  <trk>
    <name><![CDATA[Fontenay-St-Père-Forêt du Chesnay Vétheuil-16962797]]></name>
    <trkseg>
      <trkpt lat="49.0251" lon="1.7545">
        <ele>107</ele>
        <time>2023-06-30T13:44:06Z</time>
      </trkpt>
      <trkpt lat="49.02539" lon="1.75455">
        <ele>108</ele>
        <time>2023-06-30T13:44:45Z</time>
      </trkpt>
      <trkpt lat="49.02543" lon="1.7546">
        <ele>109</ele>
        <time>2023-06-30T13:44:52Z</time>
      </trkpt>
      <trkpt lat="49.02544" lon="1.75465">
        <ele>109</ele>
        <time>2023-06-30T13:44:56Z</time>
      </trkpt>
      <trkpt lat="49.02556" lon="1.75458">
        <ele>109</ele>
        <time>2023-06-30T13:45:14Z</time>
      </trkpt>
      <trkpt lat="49.02569" lon="1.7547">
        <ele>110</ele>
        <time>2023-06-30T13:45:34Z</time>
      </trkpt>
      <trkpt lat="49.02612" lon="1.75487">
        <ele>112</ele>
        <time>2023-06-30T13:46:33Z</time>
      </trkpt>
      <trkpt lat="49.02629" lon="1.75497">
        <ele>113</ele>
        <time>2023-06-30T13:46:57Z</time>
      </trkpt>
      <trkpt lat="49.02647" lon="1.75512">
        <ele>114</ele>
        <time>2023-06-30T13:47:25Z</time>
      </trkpt>
      <trkpt lat="49.02727" lon="1.75569">
        <ele>120</ele>
        <time>2023-06-30T13:49:23Z</time>
      </trkpt>
      <trkpt lat="49.02787" lon="1.7562">
        <ele>122</ele>
        <time>2023-06-30T13:50:54Z</time>
      </trkpt>
      <trkpt lat="49.02826" lon="1.75649">
        <ele>122</ele>
        <time>2023-06-30T13:51:52Z</time>
      </trkpt>
      <trkpt lat="49.02857" lon="1.75665">
        <ele>123</ele>
        <time>2023-06-30T13:52:36Z</time>
      </trkpt>
      <trkpt lat="49.02887" lon="1.75684">
        <ele>123</ele>
        <time>2023-06-30T13:53:19Z</time>
      </trkpt>
      <trkpt lat="49.02918" lon="1.75728">
        <ele>123</ele>
        <time>2023-06-30T13:54:16Z</time>
      </trkpt>
      <trkpt lat="49.02943" lon="1.75707">
        <ele>123</ele>
        <time>2023-06-30T13:54:54Z</time>
      </trkpt>
      <trkpt lat="49.02997" lon="1.7565">
        <ele>123</ele>
        <time>2023-06-30T13:56:21Z</time>
      </trkpt>
      <trkpt lat="49.02998" lon="1.75649">
        <ele>123</ele>
        <time>2023-06-30T13:56:23Z</time>
      </trkpt>
      <trkpt lat="49.03051" lon="1.75732">
        <ele>126</ele>
        <time>2023-06-30T13:58:04Z</time>
      </trkpt>
      <trkpt lat="49.03095" lon="1.75795">
        <ele>128</ele>
        <time>2023-06-30T13:59:25Z</time>
      </trkpt>
      <trkpt lat="49.03105" lon="1.75798">
        <ele>128</ele>
        <time>2023-06-30T13:59:39Z</time>
      </trkpt>
      <trkpt lat="49.03109" lon="1.75796">
        <ele>129</ele>
        <time>2023-06-30T13:59:44Z</time>
      </trkpt>
      <trkpt lat="49.03133" lon="1.75871">
        <ele>130</ele>
        <time>2023-06-30T14:00:57Z</time>
      </trkpt>
      <trkpt lat="49.03143" lon="1.75863">
        <ele>130</ele>
        <time>2023-06-30T14:01:12Z</time>
      </trkpt>
      <trkpt lat="49.03227" lon="1.75688">
        <ele>136</ele>
        <time>2023-06-30T14:04:22Z</time>
      </trkpt>
      <trkpt lat="49.03432" lon="1.75655">
        <ele>151</ele>
        <time>2023-06-30T14:08:57Z</time>
      </trkpt>
      <trkpt lat="49.03473" lon="1.75638">
        <ele>152</ele>
        <time>2023-06-30T14:09:54Z</time>
      </trkpt>
      <trkpt lat="49.03518" lon="1.75615">
        <ele>154</ele>
        <time>2023-06-30T14:10:57Z</time>
      </trkpt>
      <trkpt lat="49.03564" lon="1.75608">
        <ele>158</ele>
        <time>2023-06-30T14:11:59Z</time>
      </trkpt>
      <trkpt lat="49.03635" lon="1.75613">
        <ele>165</ele>
        <time>2023-06-30T14:13:34Z</time>
      </trkpt>
      <trkpt lat="49.0384" lon="1.75682">
        <ele>187</ele>
        <time>2023-06-30T14:18:14Z</time>
      </trkpt>
      <trkpt lat="49.04008" lon="1.75854">
        <ele>190</ele>
        <time>2023-06-30T14:22:44Z</time>
      </trkpt>
      <trkpt lat="49.04112" lon="1.75961">
        <ele>178</ele>
        <time>2023-06-30T14:25:31Z</time>
      </trkpt>
      <trkpt lat="49.04233" lon="1.75567">
        <ele>163</ele>
        <time>2023-06-30T14:31:52Z</time>
      </trkpt>
      <trkpt lat="49.04399" lon="1.75762">
        <ele>163</ele>
        <time>2023-06-30T14:36:31Z</time>
      </trkpt>
      <trkpt lat="49.04444" lon="1.75605">
        <ele>160</ele>
        <time>2023-06-30T14:39:01Z</time>
      </trkpt>
      <trkpt lat="49.04509" lon="1.75329">
        <ele>156</ele>
        <time>2023-06-30T14:43:18Z</time>
      </trkpt>
      <trkpt lat="49.04577" lon="1.7507">
        <ele>158</ele>
        <time>2023-06-30T14:47:22Z</time>
      </trkpt>
      <trkpt lat="49.0463" lon="1.7486">
        <ele>164</ele>
        <time>2023-06-30T14:50:39Z</time>
      </trkpt>
      <trkpt lat="49.047" lon="1.74589">
        <ele>165</ele>
        <time>2023-06-30T14:54:53Z</time>
      </trkpt>
      <trkpt lat="49.04704" lon="1.74562">
        <ele>164</ele>
        <time>2023-06-30T14:55:18Z</time>
      </trkpt>
      <trkpt lat="49.04699" lon="1.74543">
        <ele>164</ele>
        <time>2023-06-30T14:55:36Z</time>
      </trkpt>
      <trkpt lat="49.0464" lon="1.74475">
        <ele>164</ele>
        <time>2023-06-30T14:57:14Z</time>
      </trkpt>
      <trkpt lat="49.04618" lon="1.74453">
        <ele>162</ele>
        <time>2023-06-30T14:57:49Z</time>
      </trkpt>
      <trkpt lat="49.04588" lon="1.74429">
        <ele>161</ele>
        <time>2023-06-30T14:58:35Z</time>
      </trkpt>
      <trkpt lat="49.04595" lon="1.74418">
        <ele>160</ele>
        <time>2023-06-30T14:58:48Z</time>
      </trkpt>
      <trkpt lat="49.04651" lon="1.74363">
        <ele>155</ele>
        <time>2023-06-30T15:00:17Z</time>
      </trkpt>
      <trkpt lat="49.04655" lon="1.74352">
        <ele>154</ele>
        <time>2023-06-30T15:00:28Z</time>
      </trkpt>
      <trkpt lat="49.0464" lon="1.74327">
        <ele>153</ele>
        <time>2023-06-30T15:00:58Z</time>
      </trkpt>
      <trkpt lat="49.0461" lon="1.7425">
        <ele>149</ele>
        <time>2023-06-30T15:02:16Z</time>
      </trkpt>
      <trkpt lat="49.04604" lon="1.74229">
        <ele>148</ele>
        <time>2023-06-30T15:02:36Z</time>
      </trkpt>
      <trkpt lat="49.04551" lon="1.73731">
        <ele>144</ele>
        <time>2023-06-30T15:09:57Z</time>
      </trkpt>
      <trkpt lat="49.04545" lon="1.73693">
        <ele>146</ele>
        <time>2023-06-30T15:10:31Z</time>
      </trkpt>
      <trkpt lat="49.04439" lon="1.73739">
        <ele>146</ele>
        <time>2023-06-30T15:12:58Z</time>
      </trkpt>
      <trkpt lat="49.04345" lon="1.73617">
        <ele>149</ele>
        <time>2023-06-30T15:15:43Z</time>
      </trkpt>
      <trkpt lat="49.04311" lon="1.73583">
        <ele>147</ele>
        <time>2023-06-30T15:16:37Z</time>
      </trkpt>
      <trkpt lat="49.04249" lon="1.73565">
        <ele>145</ele>
        <time>2023-06-30T15:18:02Z</time>
      </trkpt>
      <trkpt lat="49.04202" lon="1.73555">
        <ele>144</ele>
        <time>2023-06-30T15:19:05Z</time>
      </trkpt>
      <trkpt lat="49.04155" lon="1.73527">
        <ele>142</ele>
        <time>2023-06-30T15:20:12Z</time>
      </trkpt>
      <trkpt lat="49.0412" lon="1.73477">
        <ele>137</ele>
        <time>2023-06-30T15:21:16Z</time>
      </trkpt>
      <trkpt lat="49.04107" lon="1.73434">
        <ele>134</ele>
        <time>2023-06-30T15:21:58Z</time>
      </trkpt>
      <trkpt lat="49.04102" lon="1.73372">
        <ele>132</ele>
        <time>2023-06-30T15:22:52Z</time>
      </trkpt>
      <trkpt lat="49.04093" lon="1.73309">
        <ele>131</ele>
        <time>2023-06-30T15:23:49Z</time>
      </trkpt>
      <trkpt lat="49.04082" lon="1.73281">
        <ele>132</ele>
        <time>2023-06-30T15:24:17Z</time>
      </trkpt>
      <trkpt lat="49.04078" lon="1.73281">
        <ele>132</ele>
        <time>2023-06-30T15:24:23Z</time>
      </trkpt>
      <trkpt lat="49.04082" lon="1.73281">
        <ele>132</ele>
        <time>2023-06-30T15:24:28Z</time>
      </trkpt>
      <trkpt lat="49.0424" lon="1.73084">
        <ele>141</ele>
        <time>2023-06-30T15:29:00Z</time>
      </trkpt>
      <trkpt lat="49.04381" lon="1.72902">
        <ele>146</ele>
        <time>2023-06-30T15:33:07Z</time>
      </trkpt>
      <trkpt lat="49.04446" lon="1.72823">
        <ele>149</ele>
        <time>2023-06-30T15:34:58Z</time>
      </trkpt>
      <trkpt lat="49.04529" lon="1.72733">
        <ele>152</ele>
        <time>2023-06-30T15:37:14Z</time>
      </trkpt>
      <trkpt lat="49.04663" lon="1.72557">
        <ele>155</ele>
        <time>2023-06-30T15:41:09Z</time>
      </trkpt>
      <trkpt lat="49.04767" lon="1.72368">
        <ele>151</ele>
        <time>2023-06-30T15:44:45Z</time>
      </trkpt>
      <trkpt lat="49.05014" lon="1.71845">
        <ele>152</ele>
        <time>2023-06-30T15:54:09Z</time>
      </trkpt>
      <trkpt lat="49.05021" lon="1.71825">
        <ele>152</ele>
        <time>2023-06-30T15:54:29Z</time>
      </trkpt>
      <trkpt lat="49.05226" lon="1.71369">
        <ele>156</ele>
        <time>2023-06-30T16:02:33Z</time>
      </trkpt>
      <trkpt lat="49.05302" lon="1.7123">
        <ele>155</ele>
        <time>2023-06-30T16:05:11Z</time>
      </trkpt>
      <trkpt lat="49.05322" lon="1.71205">
        <ele>156</ele>
        <time>2023-06-30T16:05:45Z</time>
      </trkpt>
      <trkpt lat="49.05399" lon="1.71157">
        <ele>156</ele>
        <time>2023-06-30T16:07:36Z</time>
      </trkpt>
      <trkpt lat="49.05562" lon="1.71126">
        <ele>156</ele>
        <time>2023-06-30T16:11:16Z</time>
      </trkpt>
      <trkpt lat="49.05652" lon="1.71106">
        <ele>154</ele>
        <time>2023-06-30T16:13:17Z</time>
      </trkpt>
      <trkpt lat="49.05758" lon="1.71113">
        <ele>148</ele>
        <time>2023-06-30T16:15:39Z</time>
      </trkpt>
      <trkpt lat="49.05777" lon="1.71131">
        <ele>145</ele>
        <time>2023-06-30T16:16:08Z</time>
      </trkpt>
      <trkpt lat="49.0579" lon="1.71157">
        <ele>142</ele>
        <time>2023-06-30T16:16:37Z</time>
      </trkpt>
      <trkpt lat="49.05802" lon="1.71178">
        <ele>140</ele>
        <time>2023-06-30T16:17:01Z</time>
      </trkpt>
      <trkpt lat="49.05822" lon="1.71194">
        <ele>137</ele>
        <time>2023-06-30T16:17:32Z</time>
      </trkpt>
      <trkpt lat="49.05836" lon="1.71196">
        <ele>135</ele>
        <time>2023-06-30T16:17:50Z</time>
      </trkpt>
      <trkpt lat="49.05865" lon="1.71182">
        <ele>131</ele>
        <time>2023-06-30T16:18:31Z</time>
      </trkpt>
      <trkpt lat="49.05912" lon="1.71111">
        <ele>123</ele>
        <time>2023-06-30T16:19:59Z</time>
      </trkpt>
      <trkpt lat="49.05974" lon="1.71001">
        <ele>107</ele>
        <time>2023-06-30T16:22:06Z</time>
      </trkpt>
      <trkpt lat="49.06001" lon="1.70965">
        <ele>99</ele>
        <time>2023-06-30T16:22:54Z</time>
      </trkpt>
      <trkpt lat="49.06046" lon="1.7094">
        <ele>86</ele>
        <time>2023-06-30T16:23:58Z</time>
      </trkpt>
      <trkpt lat="49.06054" lon="1.70927">
        <ele>83</ele>
        <time>2023-06-30T16:24:13Z</time>
      </trkpt>
      <trkpt lat="49.06088" lon="1.70809">
        <ele>72</ele>
        <time>2023-06-30T16:26:06Z</time>
      </trkpt>
      <trkpt lat="49.06099" lon="1.708">
        <ele>70</ele>
        <time>2023-06-30T16:26:23Z</time>
      </trkpt>
      <trkpt lat="49.06144" lon="1.70789">
        <ele>61</ele>
        <time>2023-06-30T16:27:24Z</time>
      </trkpt>
      <trkpt lat="49.0621" lon="1.70762">
        <ele>51</ele>
        <time>2023-06-30T16:28:55Z</time>
      </trkpt>
      <trkpt lat="49.06211" lon="1.70761">
        <ele>51</ele>
        <time>2023-06-30T16:28:56Z</time>
      </trkpt>
      <trkpt lat="49.06232" lon="1.70901">
        <ele>51</ele>
        <time>2023-06-30T16:31:02Z</time>
      </trkpt>
      <trkpt lat="49.06238" lon="1.70966">
        <ele>52</ele>
        <time>2023-06-30T16:31:59Z</time>
      </trkpt>
      <trkpt lat="49.06239" lon="1.71006">
        <ele>53</ele>
        <time>2023-06-30T16:32:34Z</time>
      </trkpt>
      <trkpt lat="49.06236" lon="1.71047">
        <ele>53</ele>
        <time>2023-06-30T16:33:10Z</time>
      </trkpt>
      <trkpt lat="49.06237" lon="1.71088">
        <ele>54</ele>
        <time>2023-06-30T16:33:46Z</time>
      </trkpt>
      <trkpt lat="49.06245" lon="1.71149">
        <ele>53</ele>
        <time>2023-06-30T16:34:41Z</time>
      </trkpt>
      <trkpt lat="49.06256" lon="1.7122">
        <ele>53</ele>
        <time>2023-06-30T16:35:44Z</time>
      </trkpt>
      <trkpt lat="49.06268" lon="1.71279">
        <ele>55</ele>
        <time>2023-06-30T16:36:38Z</time>
      </trkpt>
      <trkpt lat="49.06278" lon="1.7135">
        <ele>57</ele>
        <time>2023-06-30T16:37:42Z</time>
      </trkpt>
      <trkpt lat="49.06288" lon="1.71404">
        <ele>57</ele>
        <time>2023-06-30T16:38:31Z</time>
      </trkpt>
      <trkpt lat="49.06298" lon="1.71448">
        <ele>57</ele>
        <time>2023-06-30T16:39:12Z</time>
      </trkpt>
      <trkpt lat="49.06303" lon="1.71509">
        <ele>57</ele>
        <time>2023-06-30T16:40:05Z</time>
      </trkpt>
      <trkpt lat="49.06302" lon="1.71509">
        <ele>57</ele>
        <time>2023-06-30T16:40:07Z</time>
      </trkpt>
      <trkpt lat="49.06381" lon="1.71486">
        <ele>51</ele>
        <time>2023-06-30T16:41:54Z</time>
      </trkpt>
      <trkpt lat="49.06382" lon="1.7145">
        <ele>50</ele>
        <time>2023-06-30T16:42:26Z</time>
      </trkpt>
      <trkpt lat="49.06389" lon="1.71453">
        <ele>50</ele>
        <time>2023-06-30T16:42:35Z</time>
      </trkpt>
      <trkpt lat="49.06409" lon="1.71519">
        <ele>50</ele>
        <time>2023-06-30T16:43:39Z</time>
      </trkpt>
      <trkpt lat="49.0642" lon="1.71541">
        <ele>50</ele>
        <time>2023-06-30T16:44:03Z</time>
      </trkpt>
      <trkpt lat="49.06421" lon="1.71563">
        <ele>51</ele>
        <time>2023-06-30T16:44:22Z</time>
      </trkpt>
      <trkpt lat="49.06439" lon="1.71617">
        <ele>54</ele>
        <time>2023-06-30T16:45:15Z</time>
      </trkpt>
      <trkpt lat="49.06438" lon="1.71623">
        <ele>55</ele>
        <time>2023-06-30T16:45:21Z</time>
      </trkpt>
      <trkpt lat="49.06431" lon="1.71646">
        <ele>57</ele>
        <time>2023-06-30T16:45:43Z</time>
      </trkpt>
      <trkpt lat="49.0643" lon="1.71658">
        <ele>58</ele>
        <time>2023-06-30T16:45:54Z</time>
      </trkpt>
      <trkpt lat="49.06421" lon="1.71684">
        <ele>60</ele>
        <time>2023-06-30T16:46:19Z</time>
      </trkpt>
      <trkpt lat="49.06399" lon="1.71743">
        <ele>67</ele>
        <time>2023-06-30T16:47:19Z</time>
      </trkpt>
      <trkpt lat="49.06395" lon="1.71809">
        <ele>72</ele>
        <time>2023-06-30T16:48:17Z</time>
      </trkpt>
      <trkpt lat="49.06368" lon="1.71887">
        <ele>79</ele>
        <time>2023-06-30T16:49:34Z</time>
      </trkpt>
      <trkpt lat="49.06344" lon="1.71965">
        <ele>86</ele>
        <time>2023-06-30T16:50:49Z</time>
      </trkpt>
      <trkpt lat="49.06343" lon="1.71977">
        <ele>87</ele>
        <time>2023-06-30T16:51:00Z</time>
      </trkpt>
      <trkpt lat="49.06329" lon="1.72012">
        <ele>91</ele>
        <time>2023-06-30T16:51:35Z</time>
      </trkpt>
      <trkpt lat="49.06329" lon="1.7203">
        <ele>93</ele>
        <time>2023-06-30T16:51:51Z</time>
      </trkpt>
      <trkpt lat="49.06338" lon="1.7206">
        <ele>95</ele>
        <time>2023-06-30T16:52:20Z</time>
      </trkpt>
      <trkpt lat="49.06339" lon="1.72083">
        <ele>97</ele>
        <time>2023-06-30T16:52:40Z</time>
      </trkpt>
      <trkpt lat="49.06342" lon="1.72108">
        <ele>97</ele>
        <time>2023-06-30T16:53:02Z</time>
      </trkpt>
      <trkpt lat="49.06345" lon="1.72135">
        <ele>98</ele>
        <time>2023-06-30T16:53:26Z</time>
      </trkpt>
      <trkpt lat="49.06344" lon="1.72167">
        <ele>99</ele>
        <time>2023-06-30T16:53:54Z</time>
      </trkpt>
      <trkpt lat="49.06339" lon="1.72182">
        <ele>100</ele>
        <time>2023-06-30T16:54:09Z</time>
      </trkpt>
      <trkpt lat="49.06325" lon="1.72197">
        <ele>103</ele>
        <time>2023-06-30T16:54:32Z</time>
      </trkpt>
      <trkpt lat="49.06302" lon="1.72208">
        <ele>108</ele>
        <time>2023-06-30T16:55:04Z</time>
      </trkpt>
      <trkpt lat="49.06298" lon="1.72224">
        <ele>109</ele>
        <time>2023-06-30T16:55:19Z</time>
      </trkpt>
      <trkpt lat="49.06285" lon="1.72237">
        <ele>112</ele>
        <time>2023-06-30T16:55:40Z</time>
      </trkpt>
      <trkpt lat="49.06264" lon="1.72265">
        <ele>118</ele>
        <time>2023-06-30T16:56:17Z</time>
      </trkpt>
      <trkpt lat="49.06248" lon="1.72286">
        <ele>122</ele>
        <time>2023-06-30T16:56:45Z</time>
      </trkpt>
      <trkpt lat="49.06236" lon="1.72309">
        <ele>124</ele>
        <time>2023-06-30T16:57:11Z</time>
      </trkpt>
      <trkpt lat="49.0621" lon="1.72344">
        <ele>126</ele>
        <time>2023-06-30T16:57:57Z</time>
      </trkpt>
      <trkpt lat="49.0618" lon="1.72397">
        <ele>127</ele>
        <time>2023-06-30T16:58:58Z</time>
      </trkpt>
      <trkpt lat="49.06149" lon="1.72443">
        <ele>129</ele>
        <time>2023-06-30T16:59:56Z</time>
      </trkpt>
      <trkpt lat="49.06125" lon="1.72486">
        <ele>130</ele>
        <time>2023-06-30T17:00:45Z</time>
      </trkpt>
      <trkpt lat="49.0611" lon="1.72516">
        <ele>132</ele>
        <time>2023-06-30T17:01:18Z</time>
      </trkpt>
      <trkpt lat="49.0607" lon="1.72645">
        <ele>135</ele>
        <time>2023-06-30T17:03:23Z</time>
      </trkpt>
      <trkpt lat="49.06026" lon="1.72765">
        <ele>135</ele>
        <time>2023-06-30T17:05:24Z</time>
      </trkpt>
      <trkpt lat="49.06021" lon="1.72789">
        <ele>135</ele>
        <time>2023-06-30T17:05:46Z</time>
      </trkpt>
      <trkpt lat="49.05909" lon="1.72864">
        <ele>137</ele>
        <time>2023-06-30T17:08:29Z</time>
      </trkpt>
      <trkpt lat="49.05956" lon="1.72936">
        <ele>136</ele>
        <time>2023-06-30T17:09:58Z</time>
      </trkpt>
      <trkpt lat="49.05926" lon="1.73024">
        <ele>139</ele>
        <time>2023-06-30T17:11:24Z</time>
      </trkpt>
      <trkpt lat="49.05589" lon="1.73895">
        <ele>139</ele>
        <time>2023-06-30T17:26:09Z</time>
      </trkpt>
      <trkpt lat="49.05577" lon="1.73927">
        <ele>139</ele>
        <time>2023-06-30T17:26:41Z</time>
      </trkpt>
      <trkpt lat="49.05563" lon="1.74055">
        <ele>139</ele>
        <time>2023-06-30T17:28:35Z</time>
      </trkpt>
      <trkpt lat="49.05556" lon="1.74098">
        <ele>140</ele>
        <time>2023-06-30T17:29:13Z</time>
      </trkpt>
      <trkpt lat="49.0554" lon="1.74182">
        <ele>142</ele>
        <time>2023-06-30T17:30:30Z</time>
      </trkpt>
      <trkpt lat="49.05516" lon="1.74279">
        <ele>143</ele>
        <time>2023-06-30T17:32:01Z</time>
      </trkpt>
      <trkpt lat="49.05499" lon="1.74337">
        <ele>144</ele>
        <time>2023-06-30T17:32:56Z</time>
      </trkpt>
      <trkpt lat="49.05476" lon="1.74404">
        <ele>143</ele>
        <time>2023-06-30T17:34:02Z</time>
      </trkpt>
      <trkpt lat="49.05475" lon="1.74411">
        <ele>143</ele>
        <time>2023-06-30T17:34:09Z</time>
      </trkpt>
      <trkpt lat="49.05365" lon="1.74865">
        <ele>145</ele>
        <time>2023-06-30T17:41:12Z</time>
      </trkpt>
      <trkpt lat="49.05365" lon="1.74876">
        <ele>144</ele>
        <time>2023-06-30T17:41:21Z</time>
      </trkpt>
      <trkpt lat="49.05371" lon="1.74891">
        <ele>144</ele>
        <time>2023-06-30T17:41:37Z</time>
      </trkpt>
      <trkpt lat="49.05372" lon="1.74905">
        <ele>143</ele>
        <time>2023-06-30T17:41:49Z</time>
      </trkpt>
      <trkpt lat="49.05367" lon="1.74919">
        <ele>143</ele>
        <time>2023-06-30T17:42:03Z</time>
      </trkpt>
      <trkpt lat="49.05357" lon="1.7494">
        <ele>143</ele>
        <time>2023-06-30T17:42:26Z</time>
      </trkpt>
      <trkpt lat="49.05312" lon="1.75091">
        <ele>144</ele>
        <time>2023-06-30T17:44:51Z</time>
      </trkpt>
      <trkpt lat="49.05292" lon="1.75148">
        <ele>145</ele>
        <time>2023-06-30T17:45:47Z</time>
      </trkpt>
      <trkpt lat="49.05278" lon="1.75184">
        <ele>145</ele>
        <time>2023-06-30T17:46:24Z</time>
      </trkpt>
      <trkpt lat="49.05229" lon="1.75264">
        <ele>145</ele>
        <time>2023-06-30T17:48:00Z</time>
      </trkpt>
      <trkpt lat="49.05209" lon="1.75316">
        <ele>144</ele>
        <time>2023-06-30T17:48:52Z</time>
      </trkpt>
      <trkpt lat="49.05197" lon="1.75339">
        <ele>143</ele>
        <time>2023-06-30T17:49:18Z</time>
      </trkpt>
      <trkpt lat="49.05183" lon="1.75375">
        <ele>142</ele>
        <time>2023-06-30T17:49:55Z</time>
      </trkpt>
      <trkpt lat="49.05175" lon="1.75404">
        <ele>140</ele>
        <time>2023-06-30T17:50:22Z</time>
      </trkpt>
      <trkpt lat="49.0513" lon="1.75629">
        <ele>138</ele>
        <time>2023-06-30T17:53:48Z</time>
      </trkpt>
      <trkpt lat="49.05103" lon="1.75775">
        <ele>139</ele>
        <time>2023-06-30T17:56:01Z</time>
      </trkpt>
      <trkpt lat="49.05053" lon="1.76015">
        <ele>138</ele>
        <time>2023-06-30T17:59:41Z</time>
      </trkpt>
      <trkpt lat="49.04988" lon="1.76343">
        <ele>137</ele>
        <time>2023-06-30T18:04:41Z</time>
      </trkpt>
      <trkpt lat="49.04983" lon="1.76471">
        <ele>138</ele>
        <time>2023-06-30T18:06:33Z</time>
      </trkpt>
      <trkpt lat="49.04989" lon="1.76503">
        <ele>138</ele>
        <time>2023-06-30T18:07:02Z</time>
      </trkpt>
      <trkpt lat="49.05082" lon="1.76851">
        <ele>134</ele>
        <time>2023-06-30T18:12:31Z</time>
      </trkpt>
      <trkpt lat="49.05091" lon="1.76879">
        <ele>135</ele>
        <time>2023-06-30T18:12:58Z</time>
      </trkpt>
      <trkpt lat="49.05118" lon="1.76948">
        <ele>137</ele>
        <time>2023-06-30T18:14:08Z</time>
      </trkpt>
      <trkpt lat="49.05126" lon="1.76995">
        <ele>137</ele>
        <time>2023-06-30T18:14:51Z</time>
      </trkpt>
      <trkpt lat="49.05138" lon="1.77047">
        <ele>138</ele>
        <time>2023-06-30T18:15:39Z</time>
      </trkpt>
      <trkpt lat="49.05215" lon="1.77349">
        <ele>139</ele>
        <time>2023-06-30T18:20:22Z</time>
      </trkpt>
      <trkpt lat="49.05236" lon="1.77425">
        <ele>139</ele>
        <time>2023-06-30T18:21:34Z</time>
      </trkpt>
      <trkpt lat="49.05239" lon="1.77428">
        <ele>139</ele>
        <time>2023-06-30T18:21:39Z</time>
      </trkpt>
      <trkpt lat="49.05221" lon="1.77462">
        <ele>138</ele>
        <time>2023-06-30T18:22:17Z</time>
      </trkpt>
      <trkpt lat="49.05177" lon="1.77561">
        <ele>138</ele>
        <time>2023-06-30T18:24:02Z</time>
      </trkpt>
      <trkpt lat="49.0515" lon="1.77633">
        <ele>138</ele>
        <time>2023-06-30T18:25:15Z</time>
      </trkpt>
      <trkpt lat="49.04952" lon="1.78269">
        <ele>145</ele>
        <time>2023-06-30T18:35:30Z</time>
      </trkpt>
      <trkpt lat="49.04899" lon="1.78223">
        <ele>144</ele>
        <time>2023-06-30T18:36:52Z</time>
      </trkpt>
      <trkpt lat="49.04872" lon="1.78193">
        <ele>144</ele>
        <time>2023-06-30T18:37:36Z</time>
      </trkpt>
      <trkpt lat="49.04854" lon="1.78167">
        <ele>144</ele>
        <time>2023-06-30T18:38:09Z</time>
      </trkpt>
      <trkpt lat="49.04828" lon="1.78138">
        <ele>142</ele>
        <time>2023-06-30T18:38:52Z</time>
      </trkpt>
      <trkpt lat="49.04788" lon="1.78065">
        <ele>135</ele>
        <time>2023-06-30T18:40:16Z</time>
      </trkpt>
      <trkpt lat="49.0478" lon="1.78038">
        <ele>133</ele>
        <time>2023-06-30T18:40:42Z</time>
      </trkpt>
      <trkpt lat="49.04769" lon="1.78015">
        <ele>130</ele>
        <time>2023-06-30T18:41:06Z</time>
      </trkpt>
      <trkpt lat="49.0476" lon="1.78005">
        <ele>129</ele>
        <time>2023-06-30T18:41:21Z</time>
      </trkpt>
      <trkpt lat="49.04751" lon="1.77998">
        <ele>128</ele>
        <time>2023-06-30T18:41:35Z</time>
      </trkpt>
      <trkpt lat="49.04738" lon="1.77995">
        <ele>128</ele>
        <time>2023-06-30T18:41:52Z</time>
      </trkpt>
      <trkpt lat="49.04718" lon="1.77996">
        <ele>129</ele>
        <time>2023-06-30T18:42:19Z</time>
      </trkpt>
      <trkpt lat="49.04706" lon="1.78">
        <ele>130</ele>
        <time>2023-06-30T18:42:35Z</time>
      </trkpt>
      <trkpt lat="49.047" lon="1.77996">
        <ele>130</ele>
        <time>2023-06-30T18:42:44Z</time>
      </trkpt>
      <trkpt lat="49.04662" lon="1.77964">
        <ele>130</ele>
        <time>2023-06-30T18:43:42Z</time>
      </trkpt>
      <trkpt lat="49.04603" lon="1.77907">
        <ele>133</ele>
        <time>2023-06-30T18:45:15Z</time>
      </trkpt>
      <trkpt lat="49.04538" lon="1.77851">
        <ele>132</ele>
        <time>2023-06-30T18:46:55Z</time>
      </trkpt>
      <trkpt lat="49.04484" lon="1.77808">
        <ele>132</ele>
        <time>2023-06-30T18:48:16Z</time>
      </trkpt>
      <trkpt lat="49.04452" lon="1.77779">
        <ele>133</ele>
        <time>2023-06-30T18:49:06Z</time>
      </trkpt>
      <trkpt lat="49.04398" lon="1.77727">
        <ele>134</ele>
        <time>2023-06-30T18:50:31Z</time>
      </trkpt>
      <trkpt lat="49.04357" lon="1.77683">
        <ele>135</ele>
        <time>2023-06-30T18:51:38Z</time>
      </trkpt>
      <trkpt lat="49.04266" lon="1.77582">
        <ele>134</ele>
        <time>2023-06-30T18:54:08Z</time>
      </trkpt>
      <trkpt lat="49.04113" lon="1.77404">
        <ele>138</ele>
        <time>2023-06-30T18:58:25Z</time>
      </trkpt>
      <trkpt lat="49.04097" lon="1.77421">
        <ele>139</ele>
        <time>2023-06-30T18:58:51Z</time>
      </trkpt>
      <trkpt lat="49.04023" lon="1.77477">
        <ele>143</ele>
        <time>2023-06-30T19:00:41Z</time>
      </trkpt>
      <trkpt lat="49.04008" lon="1.77486">
        <ele>144</ele>
        <time>2023-06-30T19:01:03Z</time>
      </trkpt>
      <trkpt lat="49.03997" lon="1.77493">
        <ele>144</ele>
        <time>2023-06-30T19:01:19Z</time>
      </trkpt>
      <trkpt lat="49.0392" lon="1.7752">
        <ele>148</ele>
        <time>2023-06-30T19:03:04Z</time>
      </trkpt>
      <trkpt lat="49.03898" lon="1.7753">
        <ele>148</ele>
        <time>2023-06-30T19:03:35Z</time>
      </trkpt>
      <trkpt lat="49.03872" lon="1.77555">
        <ele>147</ele>
        <time>2023-06-30T19:04:16Z</time>
      </trkpt>
      <trkpt lat="49.03719" lon="1.77759">
        <ele>147</ele>
        <time>2023-06-30T19:08:47Z</time>
      </trkpt>
      <trkpt lat="49.0369" lon="1.77802">
        <ele>149</ele>
        <time>2023-06-30T19:09:41Z</time>
      </trkpt>
      <trkpt lat="49.03663" lon="1.7785">
        <ele>152</ele>
        <time>2023-06-30T19:10:36Z</time>
      </trkpt>
      <trkpt lat="49.03639" lon="1.77927">
        <ele>156</ele>
        <time>2023-06-30T19:11:51Z</time>
      </trkpt>
      <trkpt lat="49.03598" lon="1.78016">
        <ele>160</ele>
        <time>2023-06-30T19:13:26Z</time>
      </trkpt>
      <trkpt lat="49.03548" lon="1.78092">
        <ele>159</ele>
        <time>2023-06-30T19:15:00Z</time>
      </trkpt>
      <trkpt lat="49.03452" lon="1.78168">
        <ele>164</ele>
        <time>2023-06-30T19:17:24Z</time>
      </trkpt>
      <trkpt lat="49.03444" lon="1.78179">
        <ele>164</ele>
        <time>2023-06-30T19:17:39Z</time>
      </trkpt>
      <trkpt lat="49.03409" lon="1.78202">
        <ele>166</ele>
        <time>2023-06-30T19:18:30Z</time>
      </trkpt>
      <trkpt lat="49.03339" lon="1.78261">
        <ele>171</ele>
        <time>2023-06-30T19:20:16Z</time>
      </trkpt>
      <trkpt lat="49.03285" lon="1.783">
        <ele>172</ele>
        <time>2023-06-30T19:21:36Z</time>
      </trkpt>
      <trkpt lat="49.03247" lon="1.78336">
        <ele>172</ele>
        <time>2023-06-30T19:22:36Z</time>
      </trkpt>
      <trkpt lat="49.03219" lon="1.78411">
        <ele>172</ele>
        <time>2023-06-30T19:23:51Z</time>
      </trkpt>
      <trkpt lat="49.03155" lon="1.78488">
        <ele>172</ele>
        <time>2023-06-30T19:25:40Z</time>
      </trkpt>
      <trkpt lat="49.03112" lon="1.78533">
        <ele>173</ele>
        <time>2023-06-30T19:26:50Z</time>
      </trkpt>
      <trkpt lat="49.03097" lon="1.7851">
        <ele>174</ele>
        <time>2023-06-30T19:27:18Z</time>
      </trkpt>
      <trkpt lat="49.03077" lon="1.78494">
        <ele>174</ele>
        <time>2023-06-30T19:27:48Z</time>
      </trkpt>
      <trkpt lat="49.03062" lon="1.78471">
        <ele>174</ele>
        <time>2023-06-30T19:28:17Z</time>
      </trkpt>
      <trkpt lat="49.03051" lon="1.78437">
        <ele>173</ele>
        <time>2023-06-30T19:28:50Z</time>
      </trkpt>
      <trkpt lat="49.03032" lon="1.78404">
        <ele>172</ele>
        <time>2023-06-30T19:29:28Z</time>
      </trkpt>
      <trkpt lat="49.03014" lon="1.78365">
        <ele>171</ele>
        <time>2023-06-30T19:30:10Z</time>
      </trkpt>
      <trkpt lat="49.02999" lon="1.78312">
        <ele>170</ele>
        <time>2023-06-30T19:31:00Z</time>
      </trkpt>
      <trkpt lat="49.02976" lon="1.78277">
        <ele>170</ele>
        <time>2023-06-30T19:31:44Z</time>
      </trkpt>
      <trkpt lat="49.02954" lon="1.78258">
        <ele>170</ele>
        <time>2023-06-30T19:32:18Z</time>
      </trkpt>
      <trkpt lat="49.02908" lon="1.78227">
        <ele>170</ele>
        <time>2023-06-30T19:33:25Z</time>
      </trkpt>
      <trkpt lat="49.02851" lon="1.78215">
        <ele>170</ele>
        <time>2023-06-30T19:34:41Z</time>
      </trkpt>
      <trkpt lat="49.02796" lon="1.78186">
        <ele>170</ele>
        <time>2023-06-30T19:35:59Z</time>
      </trkpt>
      <trkpt lat="49.0273" lon="1.78172">
        <ele>170</ele>
        <time>2023-06-30T19:37:28Z</time>
      </trkpt>
      <trkpt lat="49.02642" lon="1.78147">
        <ele>162</ele>
        <time>2023-06-30T19:39:27Z</time>
      </trkpt>
      <trkpt lat="49.0262" lon="1.78135">
        <ele>162</ele>
        <time>2023-06-30T19:39:59Z</time>
      </trkpt>
      <trkpt lat="49.02548" lon="1.78064">
        <ele>161</ele>
        <time>2023-06-30T19:41:53Z</time>
      </trkpt>
      <trkpt lat="49.02455" lon="1.78009">
        <ele>160</ele>
        <time>2023-06-30T19:44:06Z</time>
      </trkpt>
      <trkpt lat="49.02455" lon="1.77969">
        <ele>159</ele>
        <time>2023-06-30T19:44:41Z</time>
      </trkpt>
      <trkpt lat="49.02466" lon="1.77821">
        <ele>152</ele>
        <time>2023-06-30T19:46:51Z</time>
      </trkpt>
      <trkpt lat="49.0247" lon="1.77741">
        <ele>145</ele>
        <time>2023-06-30T19:48:02Z</time>
      </trkpt>
      <trkpt lat="49.0243" lon="1.7763">
        <ele>139</ele>
        <time>2023-06-30T19:49:53Z</time>
      </trkpt>
      <trkpt lat="49.02422" lon="1.77608">
        <ele>137</ele>
        <time>2023-06-30T19:50:15Z</time>
      </trkpt>
      <trkpt lat="49.02433" lon="1.77604">
        <ele>137</ele>
        <time>2023-06-30T19:50:30Z</time>
      </trkpt>
      <trkpt lat="49.02522" lon="1.77547">
        <ele>133</ele>
        <time>2023-06-30T19:52:38Z</time>
      </trkpt>
      <trkpt lat="49.02632" lon="1.77483">
        <ele>129</ele>
        <time>2023-06-30T19:55:16Z</time>
      </trkpt>
      <trkpt lat="49.02707" lon="1.77426">
        <ele>125</ele>
        <time>2023-06-30T19:57:07Z</time>
      </trkpt>
      <trkpt lat="49.02726" lon="1.77421">
        <ele>125</ele>
        <time>2023-06-30T19:57:33Z</time>
      </trkpt>
      <trkpt lat="49.02668" lon="1.77284">
        <ele>119</ele>
        <time>2023-06-30T19:59:56Z</time>
      </trkpt>
      <trkpt lat="49.02619" lon="1.77192">
        <ele>117</ele>
        <time>2023-06-30T20:01:40Z</time>
      </trkpt>
      <trkpt lat="49.02603" lon="1.77084">
        <ele>115</ele>
        <time>2023-06-30T20:03:16Z</time>
      </trkpt>
      <trkpt lat="49.02584" lon="1.77009">
        <ele>110</ele>
        <time>2023-06-30T20:04:27Z</time>
      </trkpt>
      <trkpt lat="49.02573" lon="1.76911">
        <ele>105</ele>
        <time>2023-06-30T20:05:54Z</time>
      </trkpt>
      <trkpt lat="49.02524" lon="1.76699">
        <ele>102</ele>
        <time>2023-06-30T20:09:10Z</time>
      </trkpt>
      <trkpt lat="49.02504" lon="1.76585">
        <ele>102</ele>
        <time>2023-06-30T20:10:54Z</time>
      </trkpt>
      <trkpt lat="49.0249" lon="1.76545">
        <ele>103</ele>
        <time>2023-06-30T20:11:33Z</time>
      </trkpt>
      <trkpt lat="49.02441" lon="1.76445">
        <ele>102</ele>
        <time>2023-06-30T20:13:23Z</time>
      </trkpt>
      <trkpt lat="49.02388" lon="1.76359">
        <ele>97</ele>
        <time>2023-06-30T20:15:06Z</time>
      </trkpt>
      <trkpt lat="49.0238" lon="1.76333">
        <ele>97</ele>
        <time>2023-06-30T20:15:31Z</time>
      </trkpt>
      <trkpt lat="49.02375" lon="1.76271">
        <ele>98</ele>
        <time>2023-06-30T20:16:26Z</time>
      </trkpt>
      <trkpt lat="49.02353" lon="1.76237">
        <ele>97</ele>
        <time>2023-06-30T20:17:08Z</time>
      </trkpt>
      <trkpt lat="49.02346" lon="1.76211">
        <ele>97</ele>
        <time>2023-06-30T20:17:32Z</time>
      </trkpt>
      <trkpt lat="49.02345" lon="1.7619">
        <ele>97</ele>
        <time>2023-06-30T20:17:51Z</time>
      </trkpt>
      <trkpt lat="49.02348" lon="1.7616">
        <ele>98</ele>
        <time>2023-06-30T20:18:17Z</time>
      </trkpt>
      <trkpt lat="49.02359" lon="1.76127">
        <ele>99</ele>
        <time>2023-06-30T20:18:49Z</time>
      </trkpt>
      <trkpt lat="49.02384" lon="1.76071">
        <ele>100</ele>
        <time>2023-06-30T20:19:49Z</time>
      </trkpt>
      <trkpt lat="49.02401" lon="1.76016">
        <ele>101</ele>
        <time>2023-06-30T20:20:42Z</time>
      </trkpt>
      <trkpt lat="49.02401" lon="1.76003">
        <ele>101</ele>
        <time>2023-06-30T20:20:53Z</time>
      </trkpt>
      <trkpt lat="49.02397" lon="1.75989">
        <ele>101</ele>
        <time>2023-06-30T20:21:07Z</time>
      </trkpt>
      <trkpt lat="49.02369" lon="1.75945">
        <ele>98</ele>
        <time>2023-06-30T20:22:00Z</time>
      </trkpt>
      <trkpt lat="49.02379" lon="1.75919">
        <ele>99</ele>
        <time>2023-06-30T20:22:27Z</time>
      </trkpt>
      <trkpt lat="49.02426" lon="1.75773">
        <ele>108</ele>
        <time>2023-06-30T20:24:49Z</time>
      </trkpt>
      <trkpt lat="49.0246" lon="1.75658">
        <ele>109</ele>
        <time>2023-06-30T20:26:39Z</time>
      </trkpt>
      <trkpt lat="49.0247" lon="1.75619">
        <ele>110</ele>
        <time>2023-06-30T20:27:16Z</time>
      </trkpt>
      <trkpt lat="49.02491" lon="1.75531">
        <ele>109</ele>
        <time>2023-06-30T20:28:38Z</time>
      </trkpt>
      <trkpt lat="49.0251" lon="1.75488">
        <ele>109</ele>
        <time>2023-06-30T20:29:23Z</time>
      </trkpt>
      <trkpt lat="49.02497" lon="1.7547">
        <ele>107</ele>
        <time>2023-06-30T20:29:47Z</time>
      </trkpt>
      <trkpt lat="49.02499" lon="1.75458">
        <ele>107</ele>
        <time>2023-06-30T20:29:58Z</time>
      </trkpt>
      <trkpt lat="49.02498" lon="1.75443">
        <ele>106</ele>
        <time>2023-06-30T20:30:11Z</time>
      </trkpt>
      <trkpt lat="49.02503" lon="1.75446">
        <ele>107</ele>
        <time>2023-06-30T20:30:18Z</time>
      </trkpt>
      <trkpt lat="49.02498" lon="1.75443">
        <ele>106</ele>
        <time>2023-06-30T20:30:25Z</time>
      </trkpt>
      <trkpt lat="49.02489" lon="1.7543">
        <ele>105</ele>
        <time>2023-06-30T20:30:42Z</time>
      </trkpt>
      <trkpt lat="49.02471" lon="1.75394">
        <ele>102</ele>
        <time>2023-06-30T20:31:21Z</time>
      </trkpt>
      <trkpt lat="49.02467" lon="1.7537">
        <ele>100</ele>
        <time>2023-06-30T20:31:43Z</time>
      </trkpt>
      <trkpt lat="49.02463" lon="1.7531">
        <ele>97</ele>
        <time>2023-06-30T20:32:36Z</time>
      </trkpt>
      <trkpt lat="49.02464" lon="1.75277">
        <ele>95</ele>
        <time>2023-06-30T20:33:05Z</time>
      </trkpt>
      <trkpt lat="49.02474" lon="1.75247">
        <ele>94</ele>
        <time>2023-06-30T20:33:34Z</time>
      </trkpt>
      <trkpt lat="49.02497" lon="1.75194">
        <ele>92</ele>
        <time>2023-06-30T20:34:30Z</time>
      </trkpt>
      <trkpt lat="49.02439" lon="1.75096">
        <ele>88</ele>
        <time>2023-06-30T20:36:25Z</time>
      </trkpt>
      <trkpt lat="49.02388" lon="1.75173">
        <ele>87</ele>
        <time>2023-06-30T20:38:01Z</time>
      </trkpt>
      <trkpt lat="49.02357" lon="1.75129">
        <ele>88</ele>
        <time>2023-06-30T20:38:58Z</time>
      </trkpt>
      <trkpt lat="49.02341" lon="1.75119">
        <ele>89</ele>
        <time>2023-06-30T20:39:21Z</time>
      </trkpt>
      <trkpt lat="49.02258" lon="1.75083">
        <ele>100</ele>
        <time>2023-06-30T20:41:16Z</time>
      </trkpt>
      <trkpt lat="49.02176" lon="1.75059">
        <ele>107</ele>
        <time>2023-06-30T20:43:07Z</time>
      </trkpt>
      <trkpt lat="49.02098" lon="1.75058">
        <ele>110</ele>
        <time>2023-06-30T20:44:51Z</time>
      </trkpt>
      <trkpt lat="49.02056" lon="1.75059">
        <ele>111</ele>
        <time>2023-06-30T20:45:47Z</time>
      </trkpt>
      <trkpt lat="49.02015" lon="1.75047">
        <ele>113</ele>
        <time>2023-06-30T20:46:43Z</time>
      </trkpt>
      <trkpt lat="49.0197" lon="1.75038">
        <ele>115</ele>
        <time>2023-06-30T20:47:44Z</time>
      </trkpt>
      <trkpt lat="49.01939" lon="1.75042">
        <ele>116</ele>
        <time>2023-06-30T20:48:25Z</time>
      </trkpt>
      <trkpt lat="49.01936" lon="1.7505">
        <ele>116</ele>
        <time>2023-06-30T20:48:33Z</time>
      </trkpt>
      <trkpt lat="49.01902" lon="1.75051">
        <ele>116</ele>
        <time>2023-06-30T20:49:19Z</time>
      </trkpt>
      <trkpt lat="49.01808" lon="1.75034">
        <ele>114</ele>
        <time>2023-06-30T20:51:25Z</time>
      </trkpt>
      <trkpt lat="49.01725" lon="1.75016">
        <ele>108</ele>
        <time>2023-06-30T20:53:17Z</time>
      </trkpt>
      <trkpt lat="49.01688" lon="1.74995">
        <ele>104</ele>
        <time>2023-06-30T20:54:09Z</time>
      </trkpt>
      <trkpt lat="49.01678" lon="1.75027">
        <ele>103</ele>
        <time>2023-06-30T20:54:41Z</time>
      </trkpt>
      <trkpt lat="49.01672" lon="1.75075">
        <ele>102</ele>
        <time>2023-06-30T20:55:23Z</time>
      </trkpt>
      <trkpt lat="49.01671" lon="1.75133">
        <ele>100</ele>
        <time>2023-06-30T20:56:14Z</time>
      </trkpt>
      <trkpt lat="49.01567" lon="1.75025">
        <ele>93</ele>
        <time>2023-06-30T20:59:02Z</time>
      </trkpt>
      <trkpt lat="49.01547" lon="1.7501">
        <ele>92</ele>
        <time>2023-06-30T20:59:32Z</time>
      </trkpt>
      <trkpt lat="49.01527" lon="1.75004">
        <ele>90</ele>
        <time>2023-06-30T20:59:59Z</time>
      </trkpt>
      <trkpt lat="49.01417" lon="1.74995">
        <ele>86</ele>
        <time>2023-06-30T21:02:26Z</time>
      </trkpt>
      <trkpt lat="49.01377" lon="1.74985">
        <ele>88</ele>
        <time>2023-06-30T21:03:20Z</time>
      </trkpt>
      <trkpt lat="49.01327" lon="1.74954">
        <ele>91</ele>
        <time>2023-06-30T21:04:32Z</time>
      </trkpt>
      <trkpt lat="49.01245" lon="1.74911">
        <ele>98</ele>
        <time>2023-06-30T21:06:28Z</time>
      </trkpt>
      <trkpt lat="49.01186" lon="1.74884">
        <ele>103</ele>
        <time>2023-06-30T21:07:50Z</time>
      </trkpt>
      <trkpt lat="49.01149" lon="1.74861">
        <ele>106</ele>
        <time>2023-06-30T21:08:43Z</time>
      </trkpt>
      <trkpt lat="49.01129" lon="1.74841">
        <ele>108</ele>
        <time>2023-06-30T21:09:15Z</time>
      </trkpt>
      <trkpt lat="49.01106" lon="1.74812">
        <ele>110</ele>
        <time>2023-06-30T21:09:55Z</time>
      </trkpt>
      <trkpt lat="49.01033" lon="1.747">
        <ele>115</ele>
        <time>2023-06-30T21:12:13Z</time>
      </trkpt>
      <trkpt lat="49.01002" lon="1.74662">
        <ele>117</ele>
        <time>2023-06-30T21:13:06Z</time>
      </trkpt>
      <trkpt lat="49.00942" lon="1.74594">
        <ele>122</ele>
        <time>2023-06-30T21:14:46Z</time>
      </trkpt>
      <trkpt lat="49.00605" lon="1.74216">
        <ele>124</ele>
        <time>2023-06-30T21:24:04Z</time>
      </trkpt>
      <trkpt lat="49.006" lon="1.74204">
        <ele>124</ele>
        <time>2023-06-30T21:24:17Z</time>
      </trkpt>
      <trkpt lat="49.00595" lon="1.74191">
        <ele>124</ele>
        <time>2023-06-30T21:24:30Z</time>
      </trkpt>
      <trkpt lat="49.00592" lon="1.74171">
        <ele>124</ele>
        <time>2023-06-30T21:24:48Z</time>
      </trkpt>
      <trkpt lat="49.0058" lon="1.7414">
        <ele>124</ele>
        <time>2023-06-30T21:25:20Z</time>
      </trkpt>
      <trkpt lat="49.00574" lon="1.7413">
        <ele>123</ele>
        <time>2023-06-30T21:25:31Z</time>
      </trkpt>
      <trkpt lat="49.00567" lon="1.74128">
        <ele>123</ele>
        <time>2023-06-30T21:25:41Z</time>
      </trkpt>
      <trkpt lat="49.00552" lon="1.7414">
        <ele>123</ele>
        <time>2023-06-30T21:26:03Z</time>
      </trkpt>
      <trkpt lat="49.00538" lon="1.74155">
        <ele>122</ele>
        <time>2023-06-30T21:26:26Z</time>
      </trkpt>
      <trkpt lat="49.005" lon="1.7422">
        <ele>120</ele>
        <time>2023-06-30T21:27:43Z</time>
      </trkpt>
      <trkpt lat="49.003" lon="1.74624">
        <ele>116</ele>
        <time>2023-06-30T21:35:06Z</time>
      </trkpt>
      <trkpt lat="49.00246" lon="1.74712">
        <ele>115</ele>
        <time>2023-06-30T21:36:51Z</time>
      </trkpt>
      <trkpt lat="49.00185" lon="1.74796">
        <ele>107</ele>
        <time>2023-06-30T21:38:41Z</time>
      </trkpt>
      <trkpt lat="49.00128" lon="1.74855">
        <ele>105</ele>
        <time>2023-06-30T21:40:13Z</time>
      </trkpt>
      <trkpt lat="49.00128" lon="1.74872">
        <ele>105</ele>
        <time>2023-06-30T21:40:28Z</time>
      </trkpt>
      <trkpt lat="49.0013" lon="1.74887">
        <ele>105</ele>
        <time>2023-06-30T21:40:41Z</time>
      </trkpt>
      <trkpt lat="49.0014" lon="1.74889">
        <ele>105</ele>
        <time>2023-06-30T21:40:54Z</time>
      </trkpt>
      <trkpt lat="49.00155" lon="1.74896">
        <ele>106</ele>
        <time>2023-06-30T21:41:15Z</time>
      </trkpt>
      <trkpt lat="49.00148" lon="1.74936">
        <ele>106</ele>
        <time>2023-06-30T21:41:52Z</time>
      </trkpt>
      <trkpt lat="49.00153" lon="1.74965">
        <ele>105</ele>
        <time>2023-06-30T21:42:18Z</time>
      </trkpt>
      <trkpt lat="49.00151" lon="1.74979">
        <ele>105</ele>
        <time>2023-06-30T21:42:30Z</time>
      </trkpt>
      <trkpt lat="49.00125" lon="1.74993">
        <ele>106</ele>
        <time>2023-06-30T21:43:07Z</time>
      </trkpt>
      <trkpt lat="49.00106" lon="1.74942">
        <ele>105</ele>
        <time>2023-06-30T21:43:59Z</time>
      </trkpt>
      <trkpt lat="49.0009" lon="1.74932">
        <ele>105</ele>
        <time>2023-06-30T21:44:22Z</time>
      </trkpt>
      <trkpt lat="48.99985" lon="1.74995">
        <ele>100</ele>
        <time>2023-06-30T21:46:52Z</time>
      </trkpt>
      <trkpt lat="48.99972" lon="1.7504">
        <ele>99</ele>
        <time>2023-06-30T21:47:35Z</time>
      </trkpt>
      <trkpt lat="48.99966" lon="1.75054">
        <ele>98</ele>
        <time>2023-06-30T21:47:50Z</time>
      </trkpt>
      <trkpt lat="48.99913" lon="1.75063">
        <ele>92</ele>
        <time>2023-06-30T21:49:01Z</time>
      </trkpt>
      <trkpt lat="48.99901" lon="1.75066">
        <ele>91</ele>
        <time>2023-06-30T21:49:17Z</time>
      </trkpt>
      <trkpt lat="48.99901" lon="1.75097">
        <ele>91</ele>
        <time>2023-06-30T21:49:44Z</time>
      </trkpt>
      <trkpt lat="48.99912" lon="1.7512">
        <ele>92</ele>
        <time>2023-06-30T21:50:09Z</time>
      </trkpt>
      <trkpt lat="49.00043" lon="1.75201">
        <ele>99</ele>
        <time>2023-06-30T21:53:18Z</time>
      </trkpt>
      <trkpt lat="49.00121" lon="1.75214">
        <ele>98</ele>
        <time>2023-06-30T21:55:03Z</time>
      </trkpt>
      <trkpt lat="49.00196" lon="1.75246">
        <ele>97</ele>
        <time>2023-06-30T21:56:47Z</time>
      </trkpt>
      <trkpt lat="49.00236" lon="1.75271">
        <ele>99</ele>
        <time>2023-06-30T21:57:44Z</time>
      </trkpt>
      <trkpt lat="49.00265" lon="1.75272">
        <ele>99</ele>
        <time>2023-06-30T21:58:23Z</time>
      </trkpt>
      <trkpt lat="49.00283" lon="1.75256">
        <ele>98</ele>
        <time>2023-06-30T21:58:51Z</time>
      </trkpt>
      <trkpt lat="49.00371" lon="1.75128">
        <ele>95</ele>
        <time>2023-06-30T22:01:33Z</time>
      </trkpt>
      <trkpt lat="49.00407" lon="1.75103">
        <ele>94</ele>
        <time>2023-06-30T22:02:26Z</time>
      </trkpt>
      <trkpt lat="49.0043" lon="1.75075">
        <ele>95</ele>
        <time>2023-06-30T22:03:05Z</time>
      </trkpt>
      <trkpt lat="49.00435" lon="1.75038">
        <ele>95</ele>
        <time>2023-06-30T22:03:38Z</time>
      </trkpt>
    </trkseg>
  </trk>
</gpx>